EI4HQ Weather Reports


Display with metric or nautical units.
time (UTC)temp
F
wind
direction
speed
MPH
gust
MPH
rain 1hr
in
rain 24hr
in
rain mn
in
humidity
%
barometer
mb
20260906103603 63 171 16.0 24.0 0.01 0.06 0.02 91 1014.5
20260906102704 63 171 16.0 24.0 0.00 0.06 0.01 90 1014.5
20260906101803 63 173 16.0 25.0 0.00 0.06 0.01 90 1014.6
20260906100903 63 168 15.0 25.0 0.00 0.06 0.01 89 1014.7
20260906100003 63 170 16.0 23.0 0.00 0.06 0.01 89 1014.8
20260906095403 63 169 15.0 23.0 0.00 0.06 0.01 88 1014.7
20260906094503 64 166 15.0 23.0 0.00 0.06 0.01 88 1014.6
20260906093603 64 164 15.0 22.0 0.00 0.06 0.01 88 1014.7
20260906092703 64 162 15.0 25.0 0.00 0.06 0.01 88 1015.0
20260906091803 63 161 17.0 25.0 0.00 0.06 0.01 88 1015.0
20260906090903 63 164 15.0 24.0 0.00 0.06 0.01 88 1015.0
20260906090003 63 162 15.0 24.0 0.00 0.06 0.01 88 1015.1
20260906085403 63 160 16.0 24.0 0.00 0.06 0.01 88 1015.2
20260906084503 63 161 15.0 26.0 0.00 0.06 0.01 89 1015.3
20260906083603 63 164 13.0 21.0 0.00 0.06 0.01 89 1015.3
20260906082703 63 162 15.0 24.0 0.00 0.06 0.01 89 1015.4
20260906081803 63 161 16.0 28.0 0.00 0.06 0.01 89 1015.4
20260906080903 63 159 17.0 28.0 0.00 0.06 0.01 89 1015.6
20260906080003 63 159 16.0 25.0 0.00 0.06 0.01 89 1015.6
20260906075403 63 157 17.0 24.0 0.00 0.06 0.01 90 1015.6
20260906074503 63 158 16.0 23.0 0.00 0.06 0.01 90 1015.7
20260906073603 63 157 18.0 27.0 0.00 0.06 0.01 89 1015.7
20260906072703 63 160 17.0 25.0 0.00 0.06 0.01 90 1015.9
20260906071803 63 159 17.0 25.0 0.00 0.06 0.01 90 1016.1
20260906070903 63 161 15.0 22.0 0.00 0.06 0.01 90 1016.0
20260906070003 63 159 16.0 23.0 0.00 0.06 0.01 90 1016.0
20260906065403 63 158 16.0 23.0 0.00 0.06 0.01 90 1016.1
20260906064503 63 158 16.0 25.0 0.00 0.06 0.01 90 1016.0
20260906063603 63 159 16.0 25.0 0.00 0.06 0.01 90 1016.0
20260906062703 63 157 15.0 25.0 0.00 0.06 0.01 90 1016.0
20260906061803 63 159 14.0 20.0 0.00 0.06 0.01 90 1016.1
20260906060903 62 166 12.0 19.0 0.00 0.06 0.01 90 1016.3
20260906060003 62 165 14.0 22.0 0.00 0.06 0.01 90 1016.4
20260906055403 62 162 14.0 22.0 0.00 0.06 0.01 90 1016.4
20260906054503 62 164 14.0 22.0 0.00 0.06 0.01 91 1016.5
20260906053603 62 166 12.0 20.0 0.00 0.06 0.01 91 1016.6
20260906052703 62 159 13.0 21.0 0.00 0.06 0.01 91 1016.7
20260906051803 63 161 12.0 19.0 0.00 0.06 0.01 91 1016.7
20260906050903 62 168 12.0 17.0 0.00 0.06 0.01 91 1016.8
20260906050003 62 168 12.0 20.0 0.00 0.06 0.01 91 1016.8
20260906045403 62 168 10.0 20.0 0.00 0.06 0.01 91 1016.9
20260906044503 62 166 11.0 17.0 0.00 0.06 0.01 91 1017.1
20260906043603 63 168 13.0 21.0 0.00 0.06 0.01 91 1017.1
20260906042703 63 172 13.0 22.0 0.00 0.06 0.01 91 1017.1
20260906041803 63 170 13.0 21.0 0.00 0.06 0.01 91 1017.3
20260906040903 63 173 10.0 18.0 0.00 0.06 0.01 92 1017.4
20260906040003 63 173 12.0 18.0 0.00 0.06 0.01 92 1017.6
20260906035403 63 170 12.0 21.0 0.00 0.06 0.01 92 1017.7
20260906034503 63 171 12.0 20.0 0.00 0.06 0.01 92 1017.7
20260906033603 63 171 11.0 20.0 0.00 0.06 0.01 92 1017.8
20260906032703 63 173 11.0 22.0 0.00 0.06 0.01 92 1017.9
20260906031803 63 173 11.0 17.0 0.00 0.06 0.01 92 1018.0
20260906030903 63 166 11.0 19.0 0.00 0.06 0.01 92 1018.0
20260906030003 63 170 11.0 19.0 0.00 0.06 0.01 92 1018.0
20260906025403 63 170 12.0 19.0 0.00 0.06 0.01 92 1018.0
20260906024503 63 168 12.0 19.0 0.00 0.06 0.01 92 1018.0
20260906023603 63 166 12.0 22.0 0.00 0.06 0.01 92 1018.1
20260906022703 63 167 12.0 19.0 0.00 0.06 0.01 92 1018.3
20260906021803 63 169 12.0 17.0 0.00 0.06 0.01 92 1018.4
20260906020903 63 168 12.0 18.0 0.00 0.06 0.01 93 1018.6
20260906020003 63 164 13.0 19.0 0.00 0.06 0.01 93 1018.6
20260906015403 63 168 13.0 20.0 0.00 0.06 0.01 93 1018.7
20260906014503 63 165 12.0 19.0 0.00 0.06 0.01 93 1018.8
20260906013603 62 166 12.0 20.0 0.00 0.06 0.01 93 1018.9
20260906012703 62 165 12.0 18.0 0.00 0.06 0.01 93 1019.0
20260906011803 63 166 12.0 19.0 0.00 0.06 0.01 93 1019.0
20260906010903 63 165 12.0 19.0 0.00 0.06 0.01 93 1019.2
20260906010003 63 168 13.0 21.0 0.00 0.06 0.01 93 1019.4
20260906005403 63 167 14.0 22.0 0.00 0.06 0.01 93 1019.4
20260906004503 63 164 14.0 21.0 0.01 0.06 0.01 93 1019.5
20260906003603 63 169 15.0 23.0 0.01 0.06 0.01 93 1019.7
20260906002703 63 174 14.0 21.0 0.01 0.06 0.01 93 1019.8
20260906001803 63 171 15.0 22.0 0.01 0.06 0.01 93 1019.8
20260906000903 63 173 14.0 22.0 0.01 0.06 0.01 93 1020.0
20260906000003 63 171 14.0 22.0 0.01 0.06 0.01 93 1020.1
20260905235403 63 173 15.0 22.0 0.01 0.06 0.01 93 1020.0
20260905234503 63 175 14.0 21.0 0.00 0.05 0.00 93 1020.2
20260905233603 63 175 14.0 23.0 0.00 0.05 0.00 93 1020.3
20260905232703 63 175 13.0 22.0 0.00 0.05 0.00 93 1020.4
20260905231803 63 173 13.0 23.0 0.00 0.05 0.00 93 1020.4
20260905230903 63 174 12.0 19.0 0.00 0.05 0.00 93 1020.5
20260905230003 63 172 10.0 18.0 0.00 0.05 0.00 93 1020.7
20260905225403 63 174 9.0 18.0 0.00 0.05 0.05 93 1020.8
20260905224503 63 175 9.0 15.0 0.01 0.05 0.05 93 1020.9
20260905223603 63 175 9.0 14.0 0.01 0.05 0.05 93 1020.9
20260905222703 63 174 9.0 14.0 0.01 0.05 0.05 93 1020.9
20260905221803 63 174 10.0 16.0 0.01 0.05 0.05 93 1021.0
20260905220903 63 172 10.0 15.0 0.01 0.05 0.05 93 1020.9
20260905220003 62 170 9.0 15.0 0.02 0.05 0.05 93 1021.0
20260905215403 62 170 9.0 15.0 0.02 0.05 0.05 93 1021.0
20260905214503 62 172 8.0 14.0 0.01 0.04 0.04 93 1021.1
20260905213603 62 168 9.0 14.0 0.02 0.04 0.04 93 1021.2
20260905212703 62 169 9.0 13.0 0.02 0.04 0.04 93 1021.3
20260905211803 62 165 9.0 14.0 0.02 0.04 0.04 93 1021.4
20260905210903 62 166 9.0 14.0 0.02 0.04 0.04 93 1021.4
20260905210003 62 167 8.0 14.0 0.02 0.03 0.03 93 1021.5
20260905205403 62 164 9.0 15.0 0.02 0.03 0.03 93 1021.5
20260905204503 62 165 9.0 16.0 0.02 0.03 0.03 93 1021.7
20260905203603 62 165 10.0 16.0 0.01 0.02 0.02 93 1021.6
20260905202703 62 163 10.0 16.0 0.01 0.02 0.02 93 1021.6
20260905201803 62 163 11.0 15.0 0.01 0.02 0.02 93 1021.6
20260905200903 62 163 11.0 19.0 0.01 0.02 0.02 93 1021.6
20260905200003 62 167 12.0 20.0 0.00 0.02 0.02 93 1021.6
20260905195403 62 167 12.0 17.0 0.01 0.02 0.02 92 1021.5
20260905194503 62 164 11.0 18.0 0.01 0.02 0.02 92 1021.6
20260905193603 62 161 11.0 18.0 0.01 0.02 0.02 92 1021.6
20260905192703 62 160 11.0 18.0 0.01 0.02 0.02 92 1021.6
20260905191803 61 161 11.0 17.0 0.01 0.02 0.02 92 1021.6
20260905190903 61 161 12.0 18.0 0.01 0.02 0.02 92 1021.6
20260905190003 61 165 10.0 16.0 0.02 0.02 0.02 92 1021.7
20260905185403 61 162 11.0 18.0 0.01 0.01 0.01 92 1021.7
20260905184503 61 159 12.0 18.0 0.01 0.01 0.01 92 1021.7
20260905183603 61 159 12.0 18.0 0.01 0.01 0.01 92 1021.8
20260905182703 61 156 12.0 19.0 0.01 0.01 0.01 92 1021.8
20260905181803 60 157 12.0 17.0 0.01 0.01 0.01 92 1021.9
20260905180903 60 158 12.0 18.0 0.01 0.01 0.01 91 1021.9
20260905180003 60 159 10.0 15.0 0.00 0.00 0.00 91 1022.0
20260905175403 60 156 10.0 16.0 0.00 0.00 0.00 91 1022.2
20260905174503 60 162 9.0 16.0 0.00 0.00 0.00 91 1022.2
20260905173603 60 168 11.0 16.0 0.00 0.00 0.00 90 1022.2
20260905172703 61 172 9.0 15.0 0.00 0.00 0.00 90 1022.3
20260905171803 61 162 9.0 16.0 0.00 0.00 0.00 90 1022.3
20260905170903 61 159 10.0 16.0 0.00 0.00 0.00 90 1022.3
20260905170003 61 163 11.0 18.0 0.00 0.00 0.00 89 1022.4
20260905165403 61 162 12.0 21.0 0.00 0.00 0.00 89 1022.3
20260905164503 61 164 10.0 17.0 0.00 0.00 0.00 88 1022.4
20260905163603 61 160 10.0 17.0 0.00 0.00 0.00 87 1022.5
20260905162703 61 169 9.0 14.0 0.00 0.00 0.00 86 1022.6
20260905161803 61 169 8.0 13.0 0.00 0.00 0.00 85 1022.7
20260905160903 61 173 8.0 17.0 0.00 0.00 0.00 85 1022.8
20260905160003 61 176 9.0 17.0 0.00 0.00 0.00 84 1023.0
20260905155403 61 174 12.0 23.0 0.00 0.00 0.00 84 1023.0
20260905154503 62 161 12.0 24.0 0.00 0.00 0.00 81 1023.1
20260905153603 63 157 11.0 18.0 0.00 0.00 0.00 81 1023.0
20260905152703 63 158 11.0 17.0 0.00 0.00 0.00 80 1023.1
20260905151803 63 158 11.0 16.0 0.00 0.00 0.00 80 1023.1
20260905150903 63 158 10.0 16.0 0.00 0.00 0.00 79 1023.1
20260905150003 63 155 10.0 16.0 0.00 0.00 0.00 78 1023.3
20260905145403 63 156 10.0 16.0 0.00 0.00 0.00 78 1023.2
20260905144503 63 159 11.0 17.0 0.00 0.00 0.00 76 1023.3
20260905143603 63 158 10.0 15.0 0.00 0.00 0.00 76 1023.5
20260905142703 62 156 10.0 15.0 0.00 0.00 0.00 76 1023.6
20260905141803 62 152 9.0 13.0 0.00 0.00 0.00 75 1023.7
20260905140903 62 149 8.0 13.0 0.00 0.00 0.00 74 1023.8
20260905140003 62 156 7.0 11.0 0.00 0.00 0.00 74 1023.8
20260905135403 62 161 8.0 12.0 0.00 0.00 0.00 74 1024.0
20260905134503 62 173 10.0 16.0 0.00 0.00 0.00 72 1024.2
20260905133603 63 170 11.0 20.0 0.00 0.00 0.00 71 1024.2
20260905132703 63 173 11.0 17.0 0.00 0.00 0.00 71 1024.2
20260905131803 63 171 9.0 14.0 0.00 0.00 0.00 71 1024.3
20260905130903 63 159 10.0 15.0 0.00 0.00 0.00 73 1024.3
20260905130003 62 156 11.0 16.0 0.00 0.00 0.00 73 1024.4
20260905125403 62 157 11.0 16.0 0.00 0.00 0.00 73 1024.3
20260905124503 62 159 10.0 15.0 0.00 0.00 0.00 73 1024.4
20260905123603 62 155 9.0 15.0 0.00 0.00 0.00 72 1024.3
20260905122703 62 156 9.0 14.0 0.00 0.00 0.00 70 1024.3
20260905121803 62 153 10.0 15.0 0.00 0.00 0.00 70 1024.2
20260905120903 63 154 10.0 15.0 0.00 0.00 0.00 70 1024.2
20260905120003 63 155 11.0 16.0 0.00 0.00 0.00 69 1024.2
20260905115403 63 155 11.0 16.0 0.00 0.00 0.00 68 1024.1
20260905114503 64 152 10.0 15.0 0.00 0.00 0.00 68 1024.1
20260905113603 63 150 10.0 15.0 0.00 0.00 0.00 69 1024.1
20260905112703 63 149 11.0 16.0 0.00 0.00 0.00 68 1024.2
20260905111803 64 148 11.0 16.0 0.00 0.00 0.00 69 1024.1
20260905110903 63 147 11.0 16.0 0.00 0.00 0.00 70 1024.2
20260905110003 63 146 10.0 14.0 0.00 0.00 0.00 69 1024.3
20260905105403 63 148 10.0 14.0 0.00 0.00 0.00 69 1024.3
20260905104503 64 150 9.0 15.0 0.00 0.00 0.00 67 1024.3